Home > Weather > Lexington-Fayette > Past weeks

Flag for U.S.A. Weather for the Past 2 Weeks in Lexington-Fayette, Kentucky, U.S.A.

Now
25 °F

Light snow. Ice fog.


Feels Like: 15 °F
Forecast: 21 / 26 °F
Wind: 10 mph from West

Location: Blue Grass Airport

Current Time: Feb 9, 2016 at 1:08:31 AM

Latest Report: Feb 8, 2016 at 11:54 PM


Visibility: 2 mi

Pressure: 29.78 "Hg

Humidity: 85%

Dew point: 21 °F

Location of Lexington-FayetteLocation

Historic Weather in Lexington-Fayette — Graph

°F

Lexington-Fayette Temperature Yesterday

Maximum temperature yesterday: 43 °F (at 12:54 AM)
Minimum temperature yesterday: 25 °F (at 11:54 PM)
Average temperature yesterday: 34 °F

High & Low Weather Summary for the Past Weeks

 TemperatureHumidityPressure
High70 °F (Feb 2, 2:54 PM)96% (Feb 8, 7:54 AM)30.49 "Hg (Feb 8, 7:54 AM)
Low20 °F (Feb 5, 5:54 AM)28% (Feb 7, 2:54 PM)29.62 "Hg (Feb 3, 1:59 AM)
Average41 °F66%30.02 "Hg
* Reported Jan 24 11:54 PM — Feb 8 11:54 PM, Lexington-Fayette, Weather by CustomWeather, © 2016

Note: Actual official high and low records may vary slightly from our data, if they occured in-between our weather recording intervals... More about our weather records

Advertising

Lexington-Fayette Weather History for the Previous 24 Hours

 ConditionsComfort  
Time TempWeatherWind HumidityBarometerVisibility
11:54 PM
Mon, Feb 8
25 °FLight snow. Ice fog.10 mph85%29.78 "Hg2 mi
10:54 PM26 °FOvercast.14 mph81%29.78 "Hg8 mi
10:01 PM26 °FLight snow. Ice fog.8 mph88%29.77 "Hg3 mi
8:54 PM27 °FLight snow. Ice fog.16 mph89%29.79 "Hg1 mi
7:58 PM29 °FLight snow. Ice fog.17 mph89%29.75 "Hg3 mi
6:54 PM32 °FMostly cloudy.13 mph88%29.74 "Hg8 mi
6:04 PM32 °FLight snow. Ice fog.12 mph88%29.72 "Hg3 mi
5:01 PM33 °FLight snow. Fog.9 mph92%29.70 "Hg2 mi
3:54 PM37 °FCloudy.10 mph79%29.68 "Hg10 mi
2:54 PM38 °FMostly cloudy.13 mph76%29.66 "Hg10 mi
2:01 PM36 °FMore clouds than sun.10 mph85%29.66 "Hg10 mi
1:54 PM36 °FLow clouds.9 mph85%29.67 "Hg10 mi
12:54 PM35 °FLow clouds.10 mph92%29.68 "Hg10 mi
12:01 PM33 °FLight snow. Fog.10 mph96%29.69 "Hg2 mi
11:54 AM33 °FLight snow. Fog.9 mph92%29.70 "Hg1 mi
11:01 AM33 °FLight snow. Fog.5 mph92%29.69 "Hg2 mi
9:54 AM35 °FLow clouds.10 mph92%29.71 "Hg9 mi
8:54 AM34 °FLow clouds.8 mph92%29.70 "Hg7 mi
7:54 AM32 °FPassing clouds.7 mph96%29.70 "Hg10 mi
6:54 AM35 °FLight snow. Fog.7 mph92%29.72 "Hg6 mi
5:54 AM36 °FLight rain. Overcast.6 mph92%29.72 "Hg10 mi
5:03 AM36 °FLight rain. Mostly cloudy.7 mph89%29.72 "Hg10 mi
4:54 AM36 °FLight rain. Mostly cloudy.7 mph89%29.73 "Hg8 mi
3:54 AM39 °FLight rain. Overcast.9 mph82%29.73 "Hg10 mi
2:54 AM42 °FMostly cloudy.9 mph51%29.72 "Hg10 mi
1:54 AM43 °FMostly cloudy.9 mph47%29.75 "Hg10 mi
Weather by CustomWeather, © 2016

See weather overviewHow to use our weather pages